Location: Br�ttisellen
(47.4227°N, 8.6287°E)
Time: 17:55:50
(UTC+00:00)

APEX - Pass Details

Date: 09 April 2020
Orbit: 331 x 1114 km, 69.9° (Epoch: 23 May)

Event Time Altitude Azimuth Distance (km) Brightness Sun altitude
Rises 18:28:17 0° 331° (NNW) 3,835 8.4 -4.3°
Reaches altitude 10° 18:31:08 10° 334° (NNW) 2,798 7.6 -4.8°
Maximum altitude 18:37:42 71° 58° (ENE) 934 4.4 -5.8°
Drops below altitude 10° 18:42:59 10° 142° (SE) 2,275 5.9 -6.7°
Enters shadow 18:44:28 - 144° (SE) 2,834 6.4 -6.9°
